Temp
4 4 4 3 3 3 3 3 3 3 3 2 2 2 2 2 2 3 3 3 3 3 3 3 2 2 2 2 2 1 1 2 2 2 2 2 2 2 1 1 1 1
4 3 3 3 3 3 3 3 3 3 2 2 2 2 2 2 2 3 3 3 3 3 3 3 2 2 2 2 2 1 1 1 1 1 1 2 1 1 1 1 1 1
4 3 3 3 3 3 3 3 3 3 2 2 2 2 2 2 2 2 3 3 3 3 3 2 2 2 2 2 2 1 1 1 1 1 1 1 1 1 1 1 1 1
3 3 3 3 2 3 3 3 3 3 2 2 2 1 2 2 2 2 3 3 3 3 2 2 2 2 2 2 2 1 1 1 1 1 1 1 1 1 1 1 1 1
3 3 2 2 2 2 3 3 3 2 2 2 1 1 1 2 2 2 2 2 2 2 2 2 2 2 2 1 1 1 1 1 1 1 1 1 1 1 1 1 1 1
2 2 2 2 2 2 2 3 2 2 2 2 1 1 1 1 2 2 2 2 2 2 2 2 2 1 1 1 1 1 1 1 1 1 0 1 1 0 0 0 0 0
2 2 2 2 2 2 2 2 2 2 1 1 1 1 1 1 1 2 2 1 1 1 1 1 1 1 1 1 1 1 1 0 0 0 0 0 1 0 0 0 0 0
2 2 2 2 2 2 2 2 1 1 1 1 1 1 1 1 1 1 1 1 1 1 1 1 1 1 1 1 1 1 0 0 0 0 0 0 0 0 0 0 0 0
2 2 1 1 2 2 2 1 1 1 2 1 1 1 1 1 1 1 1 1 1 1 1 1 1 1 1 1 0 0 0 0 0 0 0 0 0 0 0 0 0 0
1 1 1 1 1 1 1 1 1 1 2 2 1 1 1 1 1 1 1 1 1 1 1 1 1 1 1 1 0 0 0 0 0 0 0 0 0 0 0 0 0 0
1 1 1 1 1 1 1 1 1 2 2 2 1 1 1 1 1 0 0 0 0 1 1 0 0 1 1 1 0 0 0 0 0 0 0 0 0 1 1 0 0 0
1 1 1 1 1 1 1 1 2 2 2 2 1 1 1 1 1 1 0 0 0 0 0 0 0 0 0 0 0 0 0 0 0 0 0 0 0 1 1 1 1 1
1 1 1 1 1 1 1 1 1 1 2 2 2 1 1 1 1 1 1 1 1 0 0 0 0 0 0 0 0 -0 -0 -0 -0 -0 0 0 0 0 0 0 0 0
1 1 1 1 1 1 1 1 1 1 1 2 2 2 1 1 1 1 1 1 1 1 1 1 1 1 0 0 -0 -0 -0 -0 -0 -0 -0 -0 -0 -0 -0 -0 -0 -0
1 1 1 1 1 1 1 1 1 1 1 1 2 2 1 1 1 1 1 1 1 1 1 1 1 1 0 -0 -0 -0 -1 -1 -0 -0 -1 -1 -1 -1 -1 -0 -0 -0
1 1 1 1 1 1 1 1 1 1 1 1 1 1 1 1 1 1 1 1 0 0 0 0 0 0 0 -0 -0 -1 -1 -1 -0 -0 -0 -1 -1 -1 -1 -1 -1 -0
1 1 1 1 1 1 1 1 1 1 1 1 1 1 1 1 1 1 1 0 0 -0 -0 -0 -0 -0 -0 -0 -0 -1 -1 -1 -0 -0 -0 -0 -1 -1 -1 -1 -1 -0
1 1 0 1 1 0 1 1 1 1 1 1 1 1 1 1 1 1 1 1 0 0 0 -0 -0 -1 -1 -1 -1 -1 -1 -1 -1 -0 -0 -0 -0 -1 -0 -0 -0 -0
0 0 0 0 0 0 0 0 0 0 1 1 1 1 1 0 0 0 0 0 0 0 0 0 0 -0 -1 -1 -1 -1 -1 -1 -1 -1 -0 -0 -0 -0 -0 -0 -0 -0
-0 -0 -0 0 0 -0 -0 0 -0 -0 -0 -0 0 0 -0 -0 -0 -0 -0 -0 -0 -0 0 0 0 0 -0 -0 -1 -1 -1 -1 -1 -0 -0 -0 -0 -0 -0 -0 -0 -0
-0 -1 -1 -0 -0 -0 -0 -0 -0 -0 -0 -0 -0 -0 -0 -0 -1 -1 -0 -0 -0 -0 -0 -0 -0 -0 -0 -0 -1 -1 -1 -1 -1 -0 -0 -0 -0 -0 -0 -0 0 -0
-0 -0 -0 -0 -0 -0 -0 -0 -1 -1 -1 -0 -0 -1 -1 -1 -1 -1 -1 -0 -0 -0 -0 -0 -0 -0 -0 -1 -0 -0 -0 -0 -0 -0 -1 -1 -1 -0 -0 -0 0 -0
-1 -1 -1 -1 -1 -1 -1 -1 -1 -1 -1 -1 -1 -1 -1 -1 -1 -1 -1 -1 -1 -1 -0 -0 -0 -0 -0 -0 -0 -0 -0 -0 -0 -0 -0 -1 -1 -0 -0 -0 -0 -1
-2 -2 -2 -2 -2 -2 -2 -1 -1 -1 -1 -1 -1 -1 -1 -1 -1 -1 -1 -1 -1 -1 -1 -0 -0 -1 -1 -1 -0 -0 -0 -0 -1 -1 -1 -1 -0 -0 -0 -0 -1 -2
-2 -2 -2 -2 -2 -2 -2 -2 -2 -2 -1 -1 -1 -1 -1 -1 -1 -1 -1 -1 -1 -1 -1 -1 -1 -1 -1 -1 -1 -1 -1 -1 -1 -1 -1 -1 -1 -1 -1 -1 -2 -2
-2 -2 -2 -2 -2 -2 -2 -2 -2 -2 -2 -2 -2 -2 -2 -1 -1 -1 -1 -1 -1 -1 -1 -1 -1 -1 -1 -1 -1 -1 -1 -2 -2 -2 -2 -2 -1 -1 -1 -1 -2 -3
Height
3139 3140 3140 3141 3141 3142 3143 3144 3144 3144 3144 3144 3144 3144 3145 3145 3145 3145 3146 3146 3146 3147 3148 3148 3149 3150 3150 3151 3152 3152 3153 3153 3153 3154 3154 3154 3155 3155 3155 3156 3156 3156
3137 3138 3138 3139 3139 3140 3141 3142 3143 3144 3143 3143 3143 3143 3144 3144 3144 3145 3145 3145 3146 3147 3148 3148 3149 3150 3151 3151 3152 3153 3153 3153 3154 3154 3154 3155 3155 3155 3156 3156 3156 3156
3136 3136 3137 3137 3138 3139 3140 3141 3142 3143 3143 3142 3142 3142 3142 3143 3144 3144 3145 3145 3146 3147 3148 3148 3149 3150 3151 3152 3152 3153 3154 3154 3154 3154 3155 3155 3156 3156 3156 3156 3156 3156
3134 3135 3136 3137 3137 3138 3139 3140 3141 3142 3142 3141 3141 3141 3142 3143 3143 3144 3144 3145 3146 3147 3148 3149 3150 3151 3151 3152 3153 3154 3154 3155 3155 3155 3155 3156 3156 3156 3157 3157 3157 3157
3132 3134 3134 3135 3137 3138 3139 3140 3140 3141 3140 3140 3141 3141 3141 3142 3143 3143 3144 3145 3146 3147 3148 3149 3150 3151 3152 3153 3154 3154 3155 3156 3156 3156 3156 3157 3157 3157 3157 3157 3158 3158
3131 3132 3133 3135 3136 3137 3138 3139 3139 3140 3139 3140 3140 3140 3141 3142 3142 3143 3144 3145 3146 3147 3149 3150 3151 3152 3153 3154 3154 3155 3156 3157 3157 3157 3157 3157 3157 3158 3158 3158 3158 3158
3130 3131 3132 3134 3135 3136 3137 3138 3138 3139 3139 3139 3139 3140 3141 3142 3142 3143 3144 3145 3146 3147 3149 3150 3151 3152 3153 3154 3155 3156 3157 3157 3158 3158 3158 3158 3158 3158 3158 3158 3158 3159
3129 3131 3132 3133 3134 3135 3136 3137 3137 3138 3138 3138 3139 3140 3141 3141 3142 3143 3144 3145 3146 3147 3149 3150 3151 3152 3153 3154 3155 3156 3157 3157 3158 3158 3158 3158 3159 3159 3159 3158 3158 3159
3129 3130 3131 3132 3133 3134 3136 3136 3137 3137 3138 3138 3139 3140 3140 3141 3142 3143 3144 3145 3146 3147 3148 3149 3151 3152 3153 3154 3155 3155 3156 3157 3157 3157 3157 3158 3158 3158 3158 3158 3158 3158
3126 3127 3129 3130 3132 3134 3135 3136 3137 3137 3138 3138 3139 3139 3140 3141 3142 3143 3144 3145 3146 3147 3147 3148 3150 3151 3152 3153 3154 3155 3155 3156 3156 3156 3156 3156 3156 3157 3157 3157 3157 3157
3120 3123 3126 3129 3132 3134 3136 3137 3138 3138 3138 3138 3138 3139 3139 3140 3141 3142 3143 3144 3145 3145 3146 3148 3149 3150 3152 3152 3153 3153 3154 3155 3155 3155 3155 3154 3154 3154 3155 3155 3155 3156
3119 3123 3127 3129 3132 3135 3136 3137 3137 3138 3138 3138 3138 3138 3139 3140 3140 3141 3142 3143 3143 3144 3145 3146 3148 3149 3150 3150 3151 3151 3152 3153 3153 3153 3153 3153 3152 3152 3153 3152 3152 3153
3120 3124 3129 3131 3133 3134 3134 3134 3135 3136 3137 3138 3138 3138 3139 3139 3140 3140 3141 3141 3142 3143 3144 3145 3146 3147 3147 3148 3149 3150 3150 3150 3150 3151 3151 3152 3152 3151 3150 3150 3150 3150
3120 3124 3128 3131 3132 3133 3132 3133 3133 3134 3135 3136 3137 3138 3138 3138 3139 3139 3139 3140 3140 3141 3142 3144 3145 3145 3146 3146 3147 3148 3148 3147 3147 3149 3150 3150 3149 3148 3148 3148 3148 3147
3122 3125 3127 3129 3131 3131 3131 3132 3132 3133 3134 3135 3136 3137 3137 3137 3137 3138 3138 3138 3138 3139 3141 3142 3143 3144 3144 3145 3145 3146 3145 3144 3145 3147 3148 3147 3147 3146 3146 3146 3146 3145
3122 3124 3126 3128 3129 3130 3130 3130 3130 3131 3132 3133 3134 3135 3136 3136 3136 3137 3137 3137 3137 3138 3139 3140 3141 3142 3142 3142 3142 3143 3142 3142 3143 3144 3144 3144 3144 3144 3143 3143 3143 3143
3121 3122 3124 3126 3128 3128 3129 3129 3129 3129 3131 3132 3133 3133 3134 3134 3135 3135 3135 3135 3135 3136 3136 3137 3139 3139 3139 3139 3139 3139 3139 3139 3139 3140 3141 3141 3141 3141 3140 3140 3140 3140
3121 3122 3123 3125 3126 3127 3128 3127 3126 3127 3129 3130 3131 3131 3132 3132 3133 3133 3133 3133 3134 3134 3134 3135 3136 3136 3137 3136 3136 3136 3136 3136 3136 3136 3137 3137 3137 3137 3137 3137 3137 3137
3120 3121 3121 3123 3123 3123 3124 3122 3122 3125 3127 3128 3129 3129 3129 3130 3130 3131 3131 3131 3132 3132 3133 3133 3134 3134 3134 3134 3133 3133 3133 3132 3132 3133 3133 3133 3132 3133 3133 3133 3133 3133
3116 3117 3118 3119 3119 3119 3119 3119 3121 3123 3125 3126 3126 3127 3127 3128 3128 3129 3129 3129 3129 3129 3130 3131 3131 3132 3132 3131 3131 3131 3130 3130 3129 3129 3129 3129 3128 3128 3128 3128 3129 3129
3113 3114 3115 3116 3116 3116 3117 3118 3119 3121 3122 3123 3124 3125 3125 3126 3126 3127 3127 3127 3126 3126 3126 3127 3128 3129 3129 3129 3128 3128 3128 3127 3126 3126 3126 3125 3125 3125 3124 3124 3125 3125
3111 3112 3113 3114 3114 3114 3114 3115 3116 3117 3119 3120 3121 3122 3123 3123 3124 3124 3124 3124 3124 3123 3123 3124 3125 3126 3126 3126 3126 3126 3125 3124 3123 3123 3122 3122 3121 3121 3121 3121 3121 3121
3111 3111 3111 3111 3112 3112 3112 3113 3113 3114 3115 3116 3117 3118 3119 3120 3120 3121 3121 3121 3121 3121 3120 3120 3121 3122 3123 3123 3122 3122 3121 3121 3120 3119 3119 3118 3117 3117 3117 3118 3118 3117
3108 3108 3109 3109 3109 3110 3110 3110 3110 3110 3111 3112 3113 3113 3114 3115 3116 3117 3117 3117 3117 3117 3117 3117 3117 3118 3118 3119 3119 3118 3117 3117 3116 3116 3115 3114 3114 3113 3114 3114 3114 3114
3106 3107 3107 3108 3108 3107 3107 3107 3107 3107 3108 3108 3109 3109 3109 3110 3111 3112 3112 3113 3113 3114 3113 3113 3113 3113 3113 3113 3114 3114 3113 3113 3113 3112 3112 3111 3110 3110 3111 3110 3110 3110
3104 3104 3104 3105 3105 3105 3105 3105 3105 3105 3105 3105 3105 3105 3105 3105 3105 3106 3106 3107 3108 3109 3109 3109 3109 3109 3109 3109 3109 3109 3109 3109 3108 3108 3107 3107 3106 3107 3107 3107 3107 3107
Wind_Speed
16 15 15 15 15 12 9 7 6 5 5 6 5 2 1 2 2 3 3 2 2 2 2 3 3 4 4 4 4 4 4 4 4 4 4 4 3 4 4 3 3 4
16 15 15 16 16 14 11 8 6 4 4 5 5 4 1 2 3 4 3 3 3 3 4 4 4 5 5 5 5 5 5 4 4 4 4 4 4 4 5 5 5 6
15 14 15 17 17 15 12 9 6 4 3 3 4 3 2 3 5 6 5 5 5 6 6 6 6 7 8 8 8 7 7 6 6 5 5 5 5 5 5 5 6 6
14 14 17 18 18 15 12 10 6 3 2 2 3 3 1 4 6 8 7 7 8 8 8 8 9 10 10 11 11 11 10 10 9 9 8 7 7 7 7 6 6 5
14 16 18 19 18 15 13 10 6 3 1 1 1 1 2 5 8 9 9 9 10 10 10 10 11 11 11 11 11 11 11 11 11 11 10 9 10 9 9 9 8 7
16 17 19 19 18 16 13 10 6 3 2 1 1 1 3 6 9 11 11 11 11 11 11 11 10 10 10 10 10 9 9 9 9 9 9 8 9 9 9 9 8 8
17 18 19 19 18 15 13 10 6 4 3 3 3 3 5 7 9 11 12 12 11 11 10 9 9 8 7 7 7 7 7 6 6 6 6 5 6 7 6 5 5 5
19 19 19 19 17 15 13 9 7 5 5 4 4 5 6 7 9 11 12 12 11 10 9 8 7 6 5 5 4 4 4 3 2 3 2 2 3 3 3 2 2 1
20 20 20 19 18 17 13 10 8 7 6 5 5 6 8 8 9 10 10 11 11 10 9 8 7 5 4 3 2 2 2 2 2 2 2 2 1 1 1 1 1 2
23 24 24 21 19 17 13 9 7 6 6 6 6 7 9 9 8 9 10 10 10 10 9 8 7 6 5 5 5 6 6 6 5 6 6 5 4 4 4 4 4 4
29 29 26 22 18 14 10 7 6 5 5 6 8 9 9 10 9 9 10 10 10 9 9 9 8 8 8 9 9 10 10 10 10 9 9 9 10 9 8 8 8 8
28 26 22 18 15 10 7 6 6 6 6 6 8 9 10 11 11 11 10 9 9 9 9 9 9 9 10 12 13 13 13 12 13 13 12 12 12 12 12 13 14 13
24 20 16 14 13 11 9 9 8 7 6 6 6 7 8 10 11 11 10 9 9 10 10 9 8 10 11 12 13 13 13 13 14 14 13 12 12 14 15 16 16 16
19 16 14 13 14 14 13 12 11 10 8 7 7 7 6 7 8 9 9 9 10 11 10 8 7 8 9 9 10 11 13 15 15 13 11 12 14 15 15 14 13 14
15 14 14 15 16 15 13 12 12 11 9 8 7 6 6 5 6 7 7 7 10 10 9 8 7 7 8 8 9 11 14 17 17 15 13 14 15 15 15 14 14 15
15 15 15 16 17 16 14 13 12 11 10 8 7 7 7 6 7 7 7 8 10 10 9 9 8 9 10 11 12 13 15 18 18 17 17 17 17 17 17 17 17 18
15 15 15 16 17 18 18 17 13 10 9 8 7 7 7 7 8 8 10 11 12 12 12 12 11 12 13 13 14 15 17 18 18 17 17 18 19 19 19 19 19 20
14 15 16 17 18 20 21 18 13 9 8 6 6 7 8 9 9 10 11 12 13 14 14 14 14 15 16 17 17 18 19 20 20 20 19 19 19 19 19 20 20 20
11 10 11 13 14 15 14 10 8 7 7 6 6 7 8 10 10 10 11 13 14 14 15 15 15 16 17 19 20 20 21 22 23 22 21 21 21 20 20 21 21 20
11 10 9 8 7 7 6 5 6 8 7 7 8 9 9 10 10 11 12 14 15 16 17 16 15 16 17 19 20 20 21 23 23 22 21 22 22 23 24 23 22 21
16 15 14 12 9 8 8 8 8 8 8 9 10 11 11 12 12 13 14 15 17 18 18 16 14 14 16 18 18 19 20 22 23 23 23 24 25 26 26 26 25 23
14 13 12 11 9 8 9 8 8 9 10 12 13 13 13 13 14 15 15 16 16 17 18 17 15 14 16 18 19 20 21 22 23 24 24 25 26 27 27 26 25 24
9 8 8 7 6 7 9 11 12 13 14 15 15 16 16 15 15 16 16 17 18 19 21 21 20 19 20 21 22 23 23 23 23 24 24 25 26 26 26 25 22 20
9 9 8 8 9 10 12 13 15 17 18 18 18 19 19 19 19 19 20 22 22 23 25 26 26 25 24 24 24 24 25 24 24 24 24 26 28 27 26 24 20 18
13 13 13 13 13 13 13 15 16 18 19 20 22 23 24 25 25 25 26 27 27 28 29 29 29 28 26 25 24 23 22 22 23 23 24 27 28 27 26 25 21 21
19 20 20 19 18 18 18 19 20 21 23 24 26 27 29 29 30 30 31 31 31 31 30 30 29 28 26 24 22 21 21 21 21 21 23 25 26 26 25 24 23 24
Wind_Direction
226 232 239 246 247 249 259 271 287 328 8 28 25 32 131 156 141 124 106 77 58 46 45 57 75 88 94 96 98 102 101 106 118 136 154 160 161 160 163 168 173 177
218 227 238 243 245 248 254 262 278 319 9 22 9 13 62 151 154 146 136 115 96 82 74 71 77 87 94 97 99 103 109 117 127 135 144 142 136 140 146 150 154 160
217 226 236 239 240 242 246 254 269 309 3 16 11 11 43 139 153 158 147 125 109 97 88 84 87 92 96 99 99 100 103 108 115 120 125 128 127 131 137 143 146 151
221 225 229 232 234 236 240 247 259 288 337 357 9 16 66 137 153 156 142 124 112 103 99 95 96 96 97 98 97 98 99 100 101 99 97 102 107 111 115 119 124 136
222 223 224 225 228 231 235 240 246 252 268 310 347 34 104 134 150 149 134 121 113 106 105 103 102 101 100 98 98 99 98 97 97 93 91 92 93 93 93 96 103 113
224 221 220 222 224 228 231 232 232 222 216 221 182 140 132 138 148 147 134 123 116 112 111 109 107 106 104 101 99 98 94 91 91 89 89 87 85 84 84 89 97 104
226 220 219 222 225 225 225 226 222 212 207 193 162 153 149 144 151 153 143 132 125 121 119 116 113 111 109 106 100 97 93 87 87 88 88 85 83 84 84 88 96 102
225 219 219 224 225 221 221 223 217 207 199 182 167 162 156 150 157 163 158 148 142 139 136 134 131 127 125 121 113 114 114 111 117 110 104 102 92 91 98 101 106 115
222 217 220 225 223 219 220 222 212 204 197 187 178 174 169 162 161 168 173 169 164 161 160 160 161 165 171 171 184 208 207 213 222 226 231 214 169 137 156 181 227 261
219 218 221 222 219 218 219 219 208 197 197 190 181 181 181 176 172 174 180 182 182 184 187 189 193 200 213 225 235 241 244 246 248 251 254 253 245 233 231 236 241 253
216 217 216 212 213 220 219 210 200 193 199 190 179 185 189 186 187 189 187 188 191 195 202 208 215 223 235 243 247 249 251 253 255 256 257 260 259 255 255 258 257 258
218 218 213 204 201 206 201 191 196 203 211 201 187 190 193 192 196 199 199 201 204 209 212 215 223 232 238 243 247 251 253 251 250 251 252 256 264 273 277 277 275 272
218 215 215 209 192 184 185 184 189 200 215 216 203 198 197 196 201 207 212 215 220 226 228 228 233 240 244 248 251 254 255 249 246 249 256 263 272 279 283 284 283 279
218 207 207 207 191 182 186 188 190 196 208 214 210 209 207 202 205 212 219 226 233 238 245 250 249 248 253 256 256 256 255 254 254 257 265 273 275 276 279 279 278 277
217 210 205 201 192 184 186 194 198 201 210 219 218 218 216 208 208 217 224 235 245 251 261 266 258 250 253 257 255 253 254 258 262 264 267 275 280 282 282 279 274 275
205 206 202 197 191 185 188 198 200 201 209 218 223 224 222 216 216 224 234 245 256 263 268 267 258 252 255 260 262 261 262 265 268 268 269 275 281 284 284 282 280 280
198 197 193 193 193 191 194 195 190 195 208 216 228 239 245 246 242 243 248 253 259 263 264 261 256 253 255 262 267 269 270 272 274 275 274 275 278 281 284 284 283 282
188 188 184 187 190 192 195 188 176 186 210 223 239 252 262 269 269 265 262 262 264 265 266 264 259 255 256 260 265 269 272 274 276 278 279 280 282 283 284 283 283 282
172 173 173 179 179 183 190 179 166 187 213 231 245 258 269 275 280 279 273 270 269 268 269 269 268 264 259 258 261 265 269 273 276 279 282 285 288 288 287 284 282 281
170 172 179 189 189 196 207 201 196 207 222 237 246 254 261 266 272 274 272 270 271 272 271 271 272 270 265 262 263 266 268 271 274 277 280 283 286 288 288 287 285 282
188 188 192 199 206 219 227 225 222 224 231 240 246 250 253 257 261 265 267 268 270 273 274 272 268 266 266 266 267 268 269 270 272 273 275 278 280 282 283 284 286 285
205 206 210 212 218 235 247 253 252 250 249 251 254 254 254 255 256 257 260 263 266 270 274 275 271 265 266 269 270 271 272 273 275 275 275 276 277 278 279 281 285 285
226 231 238 243 253 266 275 277 274 271 269 267 265 262 259 256 255 255 258 261 265 270 273 275 275 272 270 271 272 274 276 277 279 279 278 277 276 277 278 280 281 278
249 256 264 270 275 278 280 280 277 275 272 269 267 267 265 262 260 260 261 264 268 271 274 275 276 275 274 273 272 272 274 275 276 277 276 276 276 278 280 279 273 260
262 268 272 273 272 271 272 272 271 270 268 267 268 269 269 269 267 266 265 266 267 269 272 275 277 277 276 275 274 272 272 273 273 274 274 274 275 277 278 276 266 251
264 270 272 269 264 260 259 260 261 262 264 266 268 270 271 272 273 273 273 272 271 270 270 271 272 272 272 272 271 272 275 277 277 276 275 274 275 275 274 271 262 250